This is the latest recevied weather packets stored in our database for station/object KE1THD. If no packets are shown the sender has not sent any weather packets the latest 1 day(s).
| Time | Temp. | Humidity | Pressure | Rain* | Wind** | Luminosity | Snow |
|---|---|---|---|---|---|---|---|
| 1778036300 | 10.56° C | 54% | 1010.9 hPa | 0 mm | - | 0 W/m² | - |
| 1778035996 | 10.56° C | 54% | 1010.8 hPa | 0 mm | - | 0 W/m² | - |
| 1778035694 | 11.11° C | 56% | 1010.8 hPa | 0 mm | - | 0 W/m² | - |
| 1778035390 | 11.11° C | 56% | 1010.6 hPa | 0 mm | - | 0 W/m² | - |
| 1778035086 | 11.11° C | 57% | 1010.8 hPa | 0 mm | - | 0 W/m² | - |
| 1778034480 | 11.67° C | 54% | 1010.7 hPa | 0 mm | - | 0 W/m² | - |
| 1778034178 | 11.11° C | 55% | 1010 hPa | 0 mm | - | 0 W/m² | - |
| 1778033876 | 11.11° C | 55% | 1010 hPa | 0 mm | - | 0 W/m² | - |
| 1778033572 | 11.67° C | 53% | 1009.8 hPa | 0 mm | - | 0 W/m² | - |
| 1778033269 | 11.67° C | 52% | 1009.6 hPa | 0 mm | - | 0 W/m² | - |
| 1778032362 | 11.67° C | 53% | 1010 hPa | 0 mm | - | 0 W/m² | - |
| 1778031755 | 11.67° C | 52% | 1009.7 hPa | 0 mm | - | 0 W/m² | - |
| 1778031452 | 11.11° C | 53% | 1009.4 hPa | 0 mm | - | 0 W/m² | - |
| 1778031149 | 11.11° C | 53% | 1009.4 hPa | 0 mm | - | 0 W/m² | - |
| 1778030543 | 11.67° C | 55% | 1009.6 hPa | 0 mm | - | 0 W/m² | - |
| 1778030240 | 11.67° C | 52% | 1009.3 hPa | 0 mm | - | 0 W/m² | - |
| 1778029936 | 11.67° C | 52% | 1009.2 hPa | 0 mm | - | 0 W/m² | - |
| 1778029635 | 11.67° C | 50% | 1009.1 hPa | 0 mm | - | 0 W/m² | - |
| 1778029332 | 12.22° C | 50% | 1008.9 hPa | 0 mm | - | 0 W/m² | - |
| 1778029029 | 12.78° C | 48% | 1009.2 hPa | 0 mm | - | 2 W/m² | - |
| 1778028725 | 13.33° C | 41% | 1009.1 hPa | 0 mm | - | 4 W/m² | - |
| 1778028421 | 13.33° C | 40% | 1009.4 hPa | 0 mm | - | 6 W/m² | - |
| 1778028119 | 13.33° C | 40% | 1009.1 hPa | 0 mm | - | 8 W/m² | - |
| 1778027815 | 13.33° C | 40% | 1009.1 hPa | 0 mm | - | 12 W/m² | - |
| 1778027511 | 13.33° C | 39% | 1009.1 hPa | 0 mm | - | 17 W/m² | - |
* Rain latest hour (hover to see other rain measurements)
** Current wind speed in m/s (hover to see current wind gust speed)